Presure
179 174 188 154 153 152 173 179 195 162 173 217 217 225 171 217 202 203 213 215 196 217 200 223 228 219 236 245 226 213 156 223 208 164 246 175 171 252 172 197 183 198 187 180 201
181 169 187 174 181 158 197 202 175 191 182 157 188 214 236 235 217 216 190 220 212 208 220 221 216 224 221 235 236 208 239 158 204 225 191 237 183 218 246 191 134 201 177 169 224
185 174 194 181 192 172 170 175 186 179 203 204 195 182 186 217 213 222 226 219 205 211 211 209 204 208 211 217 219 149 168 235 151 248 220 191 104 178 240 169 244 187 172 175 201
121 163 199 187 196 195 190 177 182 178 178 199 202 200 201 184 191 214 223 219 219 221 212 217 220 205 210 212 218 210 217 190 244 242 149 147 193 150 254 194 244 191 180 162 167
166 167 172 162 161 190 195 176 182 200 197 194 195 182 183 217 194 194 209 218 226 234 211 229 231 224 226 223 213 227 224 223 222 148 133 132 143 145 148 144 169 125 150 157 195
191 169 204 178 181 171 189 194 193 199 191 206 188 201 184 195 200 215 216 216 210 230 230 228 221 235 223 225 231 211 212 229 174 142 131 134 143 134 175 258 149 141 136 141 168
139 170 179 193 166 170 127 163 214 192 170 165 165 220 211 203 214 206 213 222 228 216 226 226 240 229 231 235 228 222 214 212 236 140 132 137 138 133 177 158 142 146 136 143 150
153 192 155 158 162 171 183 198 181 172 178 209 205 171 205 213 225 221 224 226 231 233 236 229 230 241 234 240 260 234 231 231 244 219 140 184 162 141 146 150 131 260 87 142 144
192 155 182 172 175 174 152 199 191 158 189 211 217 203 203 196 182 237 231 242 243 246 232 246 241 244 240 251 261 257 233 231 250 194 235 132 174 145 143 135 281 132 132 129 190
172 181 165 156 198 179 166 160 198 216 187 219 200 198 221 200 242 255 258 261 250 260 251 247 253 251 244 267 254 256 247 255 258 246 233 121 264 136 230 293 166 184 138 161 133
204 187 144 167 196 147 194 200 222 168 164 215 222 224 284 258 262 261 268 285 278 276 262 254 280 274 263 265 249 239 263 264 254 247 262 270 268 129 283 325 312 120 118 301 135
174 181 164 208 151 183 184 177 187 220 228 232 286 290 264 264 278 283 277 273 267 263 272 288 280 264 270 266 257 258 255 255 253 253 264 265 279 263 300 327 278 178 289 316 144
186 172 161 175 182 208 211 171 232 247 243 299 315 251 283 291 287 291 293 282 272 276 277 285 280 274 275 268 254 253 257 250 250 260 269 281 279 271 312 320 299 282 122 324 95
150 164 199 153 190 206 215 229 242 254 320 307 319 356 324 167 321 303 325 304 293 295 288 297 285 281 272 278 261 265 265 268 260 268 277 287 282 277 327 214 308 280 258 223 237
167 178 191 195 176 210 224 231 246 352 392 355 363 260 361 364 275 327 304 298 299 294 293 293 298 298 281 273 269 270 271 276 274 274 282 282 285 316 272 290 289 273 151 144 239
204 181 180 176 210 225 240 259 358 350 331 358 343 344 288 297 254 302 319 335 317 312 299 289 287 291 285 277 273 274 277 278 282 279 298 265 288 294 273 277 276 266 287 287 82
202 175 186 215 234 242 266 347 332 371 333 341 360 436 483 476 446 344 320 314 291 326 316 311 307 299 295 290 287 282 285 289 291 293 299 268 327 257 269 230 278 261 273 243 283
172 205 210 216 239 245 341 300 361 307 506 498 486 474 486 450 439 419 426 334 305 270 319 320 314 310 312 304 297 300 300 303 301 297 296 332 280 139 134 129 292 243 268 297 279
178 212 214 231 264 268 336 322 371 506 522 499 465 459 473 465 459 429 393 393 360 302 306 300 304 311 306 325 327 324 323 291 336 346 343 66 128 260 238 261 277 280 265 350 278
212 220 220 246 266 339 332 403 499 476 497 482 470 493 433 467 471 430 375 373 364 356 299 290 295 298 298 332 324 314 315 327 341 336 338 311 145 70 247 125 178 274 258 307 322
216 218 233 242 292 341 350 468 488 460 455 446 430 414 407 410 475 463 379 362 390 350 327 283 285 292 306 310 293 319 309 319 237 329 312 296 276 255 262 260 271 285 211 310 322
216 237 195 294 351 362 456 477 456 480 461 452 446 448 428 397 424 448 455 349 363 349 331 288 277 288 283 122 301 312 317 317 327 305 290 284 264 253 262 252 82 283 221 333 307
229 223 267 319 339 438 471 464 438 438 428 438 425 421 421 383 394 418 443 369 343 334 321 352 282 286 285 299 303 309 314 312 306 302 263 281 260 258 257 255 258 273 238 317 305
193 254 263 483 301 335 461 449 432 425 424 425 428 407 422 423 403 417 431 413 343 333 336 336 238 277 272 312 277 107 320 313 312 311 278 282 251 256 253 251 256 265 262 311 322
258 290 289 391 439 478 463 443 424 421 407 401 412 423 408 418 400 366 475 433 371 327 331 337 285 274 281 126 308 310 104 310 307 299 288 268 252 254 253 255 275 255 261 299 304
218 300 331 303 487 462 443 439 426 416 407 414 414 399 406 408 361 420 348 451 439 337 331 322 288 276 281 291 297 312 301 292 292 290 266 264 248 244 260 258 273 258 333 297 292
296 337 293 307 464 449 419 411 407 418 405 414 409 411 405 408 409 414 418 427 468 373 333 324 297 277 271 298 289 296 292 286 284 280 264 254 218 244 265 228 255 266 250 297 291
Wind_Speed
35 40 40 45 44 43 45 45 41 51 51 47 50 56 57 61 59 62 62 63 59 59 58 55 55 56 55 50 58 57 60 56 58 58 55 56 60 62 63 70 53 63 63 66 70
38 43 40 45 45 46 41 42 42 45 47 53 50 50 52 56 60 62 61 62 63 63 57 58 59 59 58 53 52 56 57 62 58 56 57 53 61 63 61 64 42 65 64 65 73
33 38 35 44 41 53 54 56 47 55 49 50 50 56 55 48 54 64 63 63 65 67 66 65 63 62 62 61 61 63 62 65 65 64 54 56 40 62 61 59 65 65 63 64 75
40 41 45 42 47 45 48 58 57 60 62 58 55 54 49 61 67 66 61 64 67 67 69 67 69 66 65 66 66 57 64 63 67 65 64 61 58 54 61 60 66 72 65 60 65
50 55 51 60 60 52 55 52 63 62 60 57 61 57 62 70 72 73 66 67 68 71 74 69 69 74 71 66 69 66 69 69 66 68 62 57 55 55 64 54 57 48 60 63 78
52 57 59 55 57 64 66 63 62 69 64 71 68 66 67 69 79 84 79 73 69 76 75 75 74 74 70 70 70 71 70 70 68 71 62 61 59 57 37 64 59 61 66 64 66
49 57 49 64 72 69 51 74 85 76 73 69 66 84 73 78 83 80 84 84 82 80 82 80 85 78 76 76 73 75 72 68 68 71 63 66 67 61 61 56 59 63 65 65 62
72 65 63 69 74 69 73 85 84 80 87 90 86 73 74 83 95 87 88 88 92 88 88 90 85 89 81 83 87 79 75 73 75 73 71 66 71 59 57 54 62 61 38 64 64
64 74 65 71 77 78 73 88 83 72 89 99 97 90 88 88 87 97 94 96 94 96 90 101 98 94 86 93 89 85 75 78 82 73 75 70 66 61 55 50 69 63 61 60 78
77 72 78 87 92 86 85 85 96 108 89 108 91 87 104 95 95 96 98 96 100 99 98 99 103 99 92 92 86 85 85 85 80 77 76 59 58 41 62 59 66 60 61 71 61
91 76 75 85 102 70 98 103 114 77 84 113 112 103 94 99 95 92 95 94 94 95 97 102 101 91 90 89 92 78 82 79 79 79 75 69 61 30 61 56 62 57 63 73 62
76 83 91 114 68 100 89 94 101 118 108 111 105 97 97 97 91 92 92 91 90 89 94 92 89 85 89 90 90 88 80 76 77 78 73 70 63 61 56 54 60 56 66 68 66
89 93 94 93 99 126 126 106 133 133 124 96 94 74 91 95 92 92 95 92 89 89 93 93 83 86 86 91 89 88 85 81 76 76 74 71 60 56 53 53 55 59 52 70 45
95 95 122 94 116 119 131 133 135 134 110 96 86 95 88 75 88 82 89 90 89 87 92 92 84 84 86 86 90 87 83 81 82 76 72 71 54 45 50 50 45 60 61 63 84
94 88 110 115 110 130 140 135 135 113 113 104 95 61 85 87 75 80 84 86 83 86 90 82 84 86 86 82 89 81 83 80 81 75 71 57 52 39 48 47 50 62 52 54 84
121 98 101 105 141 145 137 133 112 106 101 103 94 88 74 72 63 74 77 77 78 82 86 85 87 85 82 82 85 80 78 79 77 71 62 49 56 37 51 49 60 62 63 73 30
125 107 115 147 144 141 135 118 104 109 102 98 100 66 42 43 51 86 77 73 77 74 74 76 80 82 82 82 80 76 75 76 72 66 52 56 57 46 52 49 58 61 66 68 84
103 140 137 145 148 146 121 108 111 101 52 49 49 37 36 41 44 46 40 77 73 83 69 69 69 68 65 72 76 73 72 71 65 57 50 52 48 62 39 42 55 64 65 66 84
106 149 149 154 148 142 118 114 110 52 40 43 42 36 29 40 41 40 40 40 54 73 74 70 64 59 59 55 57 53 58 57 59 55 49 13 24 52 64 60 56 55 67 57 84
151 156 154 157 148 127 119 98 50 54 36 36 37 27 30 30 34 40 43 44 48 51 73 68 63 60 61 50 48 47 55 59 53 45 43 45 30 21 67 38 52 55 65 64 76
158 157 159 152 141 121 117 69 41 48 47 38 35 32 34 27 29 32 49 47 49 51 64 68 64 60 51 45 54 51 53 54 37 44 43 48 53 62 60 63 55 51 72 65 68
157 158 109 144 127 120 78 51 54 29 32 29 28 27 30 26 24 29 40 51 46 52 57 70 68 62 56 34 52 53 54 53 48 45 47 54 57 62 59 59 19 46 61 59 67
165 157 151 140 125 89 56 46 50 36 37 27 28 29 26 26 25 31 34 56 60 59 59 57 70 65 62 54 52 52 54 50 48 47 46 49 56 60 56 58 54 45 58 60 62
105 161 148 71 124 105 50 44 44 37 27 27 26 30 25 22 25 26 36 54 68 63 62 60 60 66 58 56 52 26 54 50 49 48 52 50 60 58 59 60 48 42 55 56 52
163 145 146 108 71 39 35 40 40 40 28 30 23 26 27 24 25 28 25 41 68 67 65 61 72 67 57 36 49 47 43 48 47 44 49 59 62 64 63 53 40 50 51 48 55
143 145 133 129 36 37 35 30 34 32 33 31 28 25 25 26 22 19 35 40 44 74 69 66 70 66 58 54 46 43 46 46 44 48 55 56 59 66 60 49 41 51 45 43 51
148 135 129 125 41 32 38 40 32 35 28 27 27 23 23 26 20 18 20 27 36 75 76 69 70 66 55 52 45 47 50 50 48 52 57 58 58 64 52 46 51 49 49 51 53
Wind_Direction
308 303 306 296 294 293 294 297 309 286 286 324 312 300 280 293 289 290 290 286 270 284 269 280 276 272 271 274 266 261 242 266 255 241 257 241 242 246 246 241 236 238 239 236 237
319 301 314 304 307 294 327 330 300 303 299 285 298 319 304 300 294 288 278 281 283 283 279 278 278 276 273 277 274 260 273 243 252 256 245 254 244 246 246 246 228 234 234 238 234
328 312 331 311 321 298 297 298 302 300 320 316 299 291 294 319 308 292 285 280 282 277 277 277 274 274 273 274 271 241 250 270 243 268 244 242 242 243 247 242 243 235 234 234 238
281 315 337 319 335 328 308 297 304 297 293 317 311 298 300 288 296 300 293 285 277 272 274 271 271 272 272 273 271 269 269 254 272 269 241 240 241 232 248 238 238 235 231 233 238
309 303 309 299 298 324 325 316 297 323 312 305 302 298 288 327 296 283 294 297 292 283 277 274 271 270 268 267 270 268 267 269 267 238 238 238 233 230 234 230 234 226 232 231 234
329 305 340 307 310 298 318 321 317 324 304 317 291 306 289 307 297 303 299 294 285 291 280 276 273 272 269 268 265 267 266 265 246 238 240 242 242 230 248 247 228 231 238 240 238
312 305 324 338 300 299 274 302 330 309 296 294 290 319 316 306 303 293 294 295 290 280 280 276 272 272 270 269 265 262 261 263 265 239 243 244 244 235 244 235 224 231 240 243 240
305 336 305 310 305 306 311 326 302 301 296 319 312 291 309 307 300 294 292 289 285 280 273 275 273 272 273 272 268 263 261 262 269 257 241 252 249 241 240 233 234 237 211 239 245
319 303 321 310 323 321 308 326 306 301 313 317 315 304 301 294 283 287 286 282 278 271 271 266 268 269 269 271 264 262 262 263 262 250 256 245 251 247 240 229 244 233 236 241 229
308 320 298 302 328 310 309 303 319 322 299 318 308 302 306 290 288 281 278 270 271 268 266 267 266 266 268 266 263 260 258 260 261 259 255 251 255 243 252 249 242 238 228 232 243
343 330 320 295 333 288 320 323 323 295 298 313 308 305 291 287 284 280 277 272 267 266 266 265 264 267 264 258 258 259 259 255 256 257 259 259 253 229 256 247 242 230 236 225 235
334 330 298 338 305 313 301 298 311 315 313 309 301 291 288 287 284 279 274 269 265 266 265 264 262 261 258 253 254 256 257 257 256 256 255 254 254 251 260 244 240 229 235 228 236
336 316 300 311 314 330 326 301 317 313 313 307 293 285 282 281 278 274 272 267 264 263 264 264 260 258 256 253 254 255 255 254 252 252 254 254 252 254 262 243 240 239 220 230 226
311 296 338 311 326 326 325 321 316 313 303 300 289 285 281 286 276 273 268 266 263 262 260 258 258 255 254 253 252 253 255 253 252 250 252 254 247 257 251 224 238 234 229 226 221
298 309 329 328 311 327 322 320 316 304 299 297 295 287 287 281 267 266 262 260 257 255 256 257 255 255 251 252 251 251 252 252 250 252 252 252 253 259 240 233 234 230 220 229 219
334 311 310 305 328 324 320 317 310 307 304 300 298 294 280 272 262 261 263 262 257 254 252 253 254 253 253 249 251 251 251 252 252 251 252 246 251 224 235 226 228 227 222 221 228
337 315 317 330 324 323 321 314 314 304 308 304 295 292 282 273 271 269 262 257 251 258 254 250 250 250 251 252 252 253 252 253 252 253 254 243 243 215 227 228 229 224 221 224 213
314 331 327 330 325 325 322 322 310 315 303 302 300 296 268 267 256 254 245 257 250 248 252 250 246 248 248 248 248 248 249 250 250 247 243 229 234 231 193 227 230 224 223 219 214
316 333 331 327 325 323 322 323 312 313 309 304 299 292 267 255 245 239 239 230 241 244 244 243 244 244 243 238 242 240 243 245 240 238 232 241 170 215 229 224 226 227 219 218 213
334 332 330 327 327 321 324 318 317 314 310 306 302 296 276 254 244 225 222 224 222 231 237 238 239 240 240 232 235 232 231 234 236 231 225 216 234 258 225 244 235 228 222 217 210
334 333 328 328 327 324 320 319 318 313 308 305 300 293 274 262 248 229 216 221 211 221 235 231 234 237 234 231 230 225 226 230 229 221 212 206 206 219 224 229 230 234 227 216 208
334 329 320 328 324 321 323 319 317 316 307 308 299 289 275 269 243 225 220 216 196 201 225 226 229 229 228 235 219 221 220 222 220 212 206 202 207 218 219 227 235 234 226 213 209
331 333 329 329 326 324 320 317 311 310 307 303 291 283 277 264 242 231 219 203 206 213 219 212 225 224 223 217 216 216 218 215 215 211 208 202 210 218 221 228 226 229 224 213 214
326 330 329 325 331 327 316 312 307 310 312 306 296 283 281 269 250 236 224 208 206 209 212 209 220 223 224 217 214 245 214 209 209 205 200 195 213 215 220 226 227 229 224 222 212
330 330 332 326 326 316 312 310 308 307 302 297 292 287 276 271 254 227 249 219 201 210 210 206 216 219 216 229 213 209 237 207 207 200 195 199 209 218 221 223 226 223 224 222 218
332 332 330 332 315 314 319 314 305 307 310 305 294 275 274 271 241 244 222 233 211 205 210 205 211 217 211 210 207 208 205 205 203 196 199 201 210 222 219 216 222 221 223 214 215
331 329 333 331 317 312 313 315 320 315 306 301 285 278 269 271 276 269 249 237 230 204 208 205 205 209 207 204 198 200 201 200 196 196 195 200 207 221 219 219 225 223 222 209 210